Location: Bremen
(53.0793°N, 8.8017°E)
Time: 21:53:45
(UTC+02:00)

Tiros 1 - Pass Details

Date: 24 April 2024
Orbit: 624 x 657 km, 48.4° (Epoch: 21 May)

Event Time Altitude Azimuth Distance (km) Brightness Sun altitude
Rises 00:19:47 0° 217° (SW) 2,934 - -22.6°
Reaches altitude 10° 00:22:29 10° 204° (SSW) 2,021 - -22.7°
Maximum altitude 00:26:09 23° 151° (SSE) 1,334 - -22.9°
Drops below altitude 10° 00:29:49 10° 99° (E) 2,011 - -23.0°
Sets 00:32:29 0° 85° (E) 2,916 - -23.1°
Exits shadow 00:32:36 - 85° (E) 2,956 10.5 -23.1°
